Location: The Saddle
(36.8333°N, 80.3417°W)
Time: 15:38:11
(UTC-05:00)

A-11 Canister half - Visible Passes

Search period start: 25 January 2022 00:00
Search period end: 04 February 2022 00:00
Orbit: 1524 x 1684 km, 47.3° (Epoch: 24 January)

Date Brightness Start Highest point End Pass type
(mag) Time Alt. Az. Time Alt. Az. Time Alt. Az.
25 Jan 10.6 19:25:28 10° WNW 19:33:47 32° SW 19:42:18 10° S visible
26 Jan 10.6 19:03:41 10° WNW 19:12:09 34° SW 19:20:48 10° S visible
27 Jan 10.6 18:41:55 10° WNW 18:50:30 36° SW 18:59:19 10° SSE visible
28 Jan 10.6 18:20:09 10° WNW 18:28:51 38° SW 18:37:47 10° SSE visible
29 Jan 10.6 17:58:24 10° WNW 18:07:12 41° SW 18:16:16 10° SSE visible
31 Jan 11.7 06:53:06 10° SSE 06:57:32 14° ESE 07:01:58 10° E visible
01 Feb 11.7 06:32:09 10° SSE 06:35:57 13° ESE 06:39:45 10° E visible
02 Feb 11.7 06:11:23 10° SE 06:14:22 12° ESE 06:17:21 10° ESE visible
02 Feb 12.0 18:42:50 10° WSW 18:44:07 10° WSW 18:45:24 10° SW visible
03 Feb 11.8 05:51:00 10° SE 05:52:47 11° ESE 05:54:35 10° ESE visible
03 Feb 12.0 18:19:43 10° WSW 18:22:31 11° WSW 18:25:19 10° SW visible
